Fort Wayne, IN

1:50 PM EDT on April 25, 2017 (GMT -0400)
Fort Wayne International

Weather History for KFWA - April, 2013

Change the Weather History Date:

Monday, April 15, 2013

  Actual Average Record
Temperature  
Mean Temperature 57 °F 50 °F  
Max Temperature 66 °F 61 °F 85 °F (2002)
Min Temperature 47 °F 39 °F 20 °F (1907)
Degree Days  
Heating Degree Days 8 15  
Month to date heating degree days 278 269  
Since 1 July heating degree days 5651 5693  
Cooling Degree Days 0 0  
Month to date cooling degree days 0 0  
Year to date cooling degree days 0 0  
Growing Degree Days 6 (Base 50)    
Moisture  
Dew Point 50 °F    
Average Humidity 77    
Maximum Humidity 86    
Minimum Humidity 67    
Precipitation  
Precipitation T in 0.12 in 1.13 in (1999)
Month to date precipitation 1.81 1.80  
Year to date precipitation 9.44 8.81  
Snow  
Snow 0.00 in 0.00 in 0.60 in (1980)
Month to date snowfall T 0.7  
Since 1 July snowfall 38.5 33.2  
Snow Depth 0.00 in    
Sea Level Pressure  
Sea Level Pressure 29.91 in    
Wind  
Wind Speed 11 mph (South)    
Max Wind Speed 21 mph    
Max Gust Speed 26 mph    
Visibility 10 miles    
Events      
T = Trace of Precipitation, MM = Missing Value Source: NWS Daily Summary

Daily Weather History Graph

Daily Weather History Graph

Search for Another Location

Airport or City:

Trip Planner

Search our weather history database for the weather conditions in past years. The results will help you decide how hot, cold, wet, or windy it might be!

Date:

Astronomy

Apr. 15, 2013 Rise Set
Actual Time 7:01 AM EDT 8:20 PM EDT
Civil Twilight 6:32 AM EDT 8:49 PM EDT
Nautical Twilight 5:58 AM EDT 9:23 PM EDT
Astronomical Twilight 5:22 AM EDT 9:59 PM EDT
Moon 10:25 AM EDT (4/15) 12:33 AM EDT (4/15)
Length of Visible Light 14h 16m
Length of Day
13h 19m
Waxing Crescent, 24% of the Moon is Illuminated
Apr 15
Waxing Crescent
Apr 18
First Quarter
Apr 25
Full
May 2
Last Quarter
May 9
New

Hourly Weather History & Observations

Time (EDT) Temp. Dew Point Humidity Pressure Visibility Wind Dir Wind Speed Gust Speed Precip Events Conditions
12:54 AM 48.0 °F 43.0 °F 83% 29.86 in 10.0 mi ESE 6.9 mph - N/A   Mostly Cloudy
1:54 AM 50.0 °F 43.0 °F 77% 29.86 in 10.0 mi SE 10.4 mph - N/A   Mostly Cloudy
2:54 AM 48.9 °F 43.0 °F 80% 29.86 in 10.0 mi SSE 6.9 mph - N/A   Mostly Cloudy
3:54 AM 51.1 °F 43.0 °F 74% 29.87 in 10.0 mi SSW 9.2 mph - N/A   Scattered Clouds
4:54 AM 48.0 °F 43.0 °F 83% 29.91 in 10.0 mi SSW 9.2 mph - N/A   Scattered Clouds
5:54 AM 50.0 °F 44.1 °F 80% 29.92 in 10.0 mi SSW 6.9 mph - N/A   Overcast
6:54 AM 48.9 °F 44.1 °F 83% 29.91 in 10.0 mi SSE 9.2 mph - N/A   Scattered Clouds
7:54 AM 52.0 °F 46.9 °F 83% 29.92 in 10.0 mi South 9.2 mph - N/A   Mostly Cloudy
8:54 AM 55.9 °F 48.9 °F 77% 29.94 in 10.0 mi South 13.8 mph - N/A   Mostly Cloudy
9:54 AM 59.0 °F 50.0 °F 72% 29.94 in 10.0 mi South 15.0 mph 23.0 mph N/A   Mostly Cloudy
10:54 AM 62.1 °F 52.0 °F 70% 29.94 in 10.0 mi South 15.0 mph 25.3 mph N/A   Mostly Cloudy
11:54 AM 63.0 °F 52.0 °F 67% 29.95 in 10.0 mi SSW 16.1 mph - N/A   Mostly Cloudy
12:54 PM 64.9 °F 53.1 °F 65% 29.95 in 10.0 mi South 18.4 mph - N/A   Mostly Cloudy
1:54 PM 64.9 °F 53.1 °F 65% 29.93 in 10.0 mi South 18.4 mph - N/A   Overcast
2:54 PM 64.0 °F 54.0 °F 70% 29.94 in 10.0 mi SSW 17.3 mph 23.0 mph N/A   Overcast
3:14 PM 66.2 °F 53.6 °F 64% 29.92 in 10.0 mi South 15.0 mph - N/A   Overcast
3:54 PM 64.9 °F 54.0 °F 68% 29.91 in 10.0 mi South 15.0 mph 21.9 mph N/A   Overcast
4:54 PM 64.0 °F 54.0 °F 70% 29.91 in 10.0 mi South 18.4 mph 24.2 mph N/A   Overcast
5:54 PM 64.9 °F 55.0 °F 70% 29.87 in 10.0 mi South 16.1 mph - 0.00 in   Overcast
6:54 PM 64.0 °F 55.0 °F 73% 29.88 in 10.0 mi SSW 6.9 mph - N/A   Overcast
7:54 PM 62.1 °F 55.0 °F 78% 29.91 in 10.0 mi SW 3.5 mph - N/A   Mostly Cloudy
8:54 PM 57.0 °F 54.0 °F 89% 29.93 in 10.0 mi Calm Calm - N/A   Mostly Cloudy
9:54 PM 55.0 °F 52.0 °F 89% 29.93 in 10.0 mi ESE 5.8 mph - N/A   Overcast
10:54 PM 57.9 °F 54.0 °F 87% 29.93 in 10.0 mi ESE 6.9 mph - N/A   Overcast
11:54 PM 60.1 °F 53.1 °F 78% 29.91 in 10.0 mi South 11.5 mph - N/A   Scattered Clouds